Location: Hilton Head Island
(32.2163°N, 80.7526°W)
Time: 04:12:41
(UTC-04:00)

Transit 2A Rocket - Pass Details

Date: 09 February 2026
Orbit: 583 x 900 km, 66.7° (Epoch: 12 March)

Event Time Altitude Azimuth Distance (km) Brightness Sun altitude
Rises 04:13:38 0° 330° (NNW) 3,322 - -37.9°
Reaches altitude 10° 04:16:12 10° 326° (NW) 2,339 - -37.4°
Maximum altitude 04:21:25 58° 249° (WSW) 849 - -36.3°
Drops below altitude 10° 04:26:09 10° 170° (S) 2,118 - -35.3°
Sets 04:28:23 0° 166° (SSE) 2,982 - -34.8°
